Regional Weather Roundup
Issued by NWS Little Rock, AR

Home | Current Version | Previous Version | Text Only | Print | Product List | Glossary Off
Versions: 1 2 3 4 5 6 7 8 9 10 11 12 13 14 15 16 17 18 19 20 21 22 23 24 25 26 27 28 29 30 31 32 33 34 35 36 37 38 39 40 41 42 43 44 45 46 47 48 49 50

199
ASUS44 KLZK 010005
RWRLZK

WEATHER ROUNDUP FOR ARKANSAS
NATIONAL WEATHER SERVICE LITTLE ROCK AR
700 PM CDT TUE MAY 31 2016

NOTE: "FAIR" INDICATES FEW OR NO CLOUDS BELOW 12,000 FEET WITH NO
SIGNIFICANT WEATHER AND/OR OBSTRUCTIONS TO VISIBILITY.

ARZ001-003-010-029-010100-
NORTHWEST ARKANSAS

CITY           SKY/WX    TMP DP  RH WIND       PRES   REMARKS
FAYETTEVILLE   CLOUDY    74  69  85 S6        29.91R
6HR MIN TEMP:  74; 6HR MAX TEMP:  76;

FORT SMITH     CLOUDY    75  69  81 NE3       29.87R
6HR MIN TEMP:  75; 6HR MAX TEMP:  80; 6HR PCP:  0.01;

HARRISON       CLOUDY    75  67  76 S5        29.92R
6HR MIN TEMP:  75; 6HR MAX TEMP:  78;

BENTONVILLE    CLOUDY    77  64  65 S6        29.92R
6HR MIN TEMP:  75; 6HR MAX TEMP:  79;

ROGERS         PTSUNNY   76  68  76 SE6       29.92R
6HR MIN TEMP:  74; 6HR MAX TEMP:  78;

SILOAM SPGS    CLOUDY    75  63  64 S8        29.93R
6HR MIN TEMP:  73; 6HR MAX TEMP:  79;

HIGHFILL       PTSUNNY   76  70  82 S6        29.91R
6HR MIN TEMP:  76; 6HR MAX TEMP:  79;

SPRINGDALE     MOSUNNY   75  68  78 S7        29.93R
$$

ARZ004-005-016-010100-
NORTH CENTRAL ARKANSAS

CITY           SKY/WX    TMP DP  RH WIND       PRES   REMARKS
BATESVILLE     CLOUDY    79  70  73 CALM      29.89R
6HR MIN TEMP:  79; 6HR MAX TEMP:  82;

FLIPPIN        CLOUDY   N/A N/A N/A CALM      29.87S
MTN HOME       CLOUDY    77  69  76 CALM      29.89R
6HR MIN TEMP:  74; 6HR MAX TEMP:  80;

$$

ARZ040-041-010100-
WEST CENTRAL ARKANSAS

CITY           SKY/WX    TMP DP  RH WIND       PRES   REMARKS
MENA           CLOUDY    73  72  94 SW3       29.91F
MOUNT IDA      CLOUDY    76  72  87 CALM      29.87S
6HR MIN TEMP:  75; 6HR MAX TEMP:  83;

$$

ARZ009-017-025-026-028-010100-
NORTHEAST ARKANSAS

CITY           SKY/WX    TMP DP  RH WIND       PRES   REMARKS
CORNING        LGT RAIN  81  66  61 SE9       29.89R
JONESBORO      MOSUNNY   82  67  60 SE6       29.88R
6HR MIN TEMP:  79; 6HR MAX TEMP:  84;

NEWPORT        CLOUDY    81  70  69 S6        29.89R
6HR MIN TEMP:  80; 6HR MAX TEMP:  84;

WALNUT RIDGE   SUNNY     81  66  61 S6        29.88R
6HR MIN TEMP:  79; 6HR MAX TEMP:  82;

BLYTHEVILLE    SUNNY     82  66  58 SE6       29.87S
6HR MIN TEMP:  78; 6HR MAX TEMP:  86; 6HR PCP: TRACE;

$$

ARZ022-023-033-042-044-010100-
CENTRAL ARKANSAS

CITY           SKY/WX    TMP DP  RH WIND       PRES   REMARKS
LITTLE ROCK    CLOUDY    81  70  69 S5        29.87R
6HR MIN TEMP:  79; 6HR MAX TEMP:  85;

JACKSONVILLE   CLOUDY    81  71  71 S2        29.87R HX  85
6HR MIN TEMP:  79; 6HR MAX TEMP:  85;

SEARCY         CLOUDY    80  72  76 SE3       29.89R
6HR MIN TEMP:  79; 6HR MAX TEMP:  84;

HOT SPRINGS    CLOUDY    80  70  71 CALM      29.89R
6HR MIN TEMP:  80; 6HR MAX TEMP:  83;

RUSSELLVILLE   PTSUNNY   78  72  81 CALM      29.88R
6HR MIN TEMP:  77; 6HR MAX TEMP:  81;

CLINTON        FAIR      79  73  83 CALM      29.90R
$$

ARZ036-010100-
EAST ARKANSAS

CITY           SKY/WX    TMP DP  RH WIND       PRES   REMARKS
WEST MEMPHIS   SUNNY     80  68  66 CALM      29.87R
6HR MIN TEMP:  80; 6HR MAX TEMP:  84;

$$

ARZ050-053-066-070-073-010100-
SOUTHWEST ARKANSAS

CITY           SKY/WX    TMP DP  RH WIND       PRES   REMARKS
ARKADELPHIA    FAIR      81  75  81 CALM      29.88R HX  87
6HR MIN TEMP:  81; 6HR MAX TEMP:  87;

CAMDEN         CLOUDY    81  72  74 CALM      29.86S
TEXARKANA      TSTM      71  68  90 NW12G22   29.92R
6HR MIN TEMP:  71; 6HR MAX TEMP:  86; 6HR PCP: TRACE;

EL DORADO      CLOUDY    79  75  87 CALM      29.87S
6HR MIN TEMP:  79; 6HR MAX TEMP:  88;

DE QUEEN       TSTM      70  70 100 W6        29.91R FOG
6HR MIN TEMP:  69; 6HR MAX TEMP:  87;

$$

ARZ056-057-069-010100-
SOUTHEAST ARKANSAS

CITY           SKY/WX    TMP DP  RH WIND       PRES   REMARKS
PINE BLUFF     CLOUDY    81  71  71 S6        29.87R HX  85
6HR MIN TEMP:  80; 6HR MAX TEMP:  86;

STUTTGART      CLOUDY    82  70  65 S5        29.87R HX  86
6HR MIN TEMP:  79; 6HR MAX TEMP:  84;

MONTICELLO     CLOUDY    83  75  77 CALM      29.86S HX  90
6HR MIN TEMP:  83; 6HR MAX TEMP:  89;


$$






USA.gov is the U.S. government's official web portal to all federal, state and local government web resources and services.